Location: MAS Eagle Lake Observatory
(44.8103°N, 93.9397°W)
Time: 09:06:29
(UTC-05:00)

OTV 5 (USA 277) - Visible Passes

Search period start: 23 June 2018 00:00
Search period end: 03 July 2018 00:00
Orbit: 313 x 320 km, 54.5° (Epoch: 21 June)

Date Brightness Start Highest point End Pass type
(mag) Time Alt. Az. Time Alt. Az. Time Alt. Az.
23 Jun ? 00:31:06 10° NNW 00:32:59 17° NNE 00:34:38 11° ENE visible
23 Jun ? 02:04:54 10° NW 02:05:27 15° NW 02:05:27 15° NW visible
23 Jun ? 23:11:35 10° NNW 23:12:37 12° N 23:13:39 10° NNE visible
24 Jun ? 00:45:15 10° NW 00:47:38 27° NNE 00:47:42 27° NNE visible
24 Jun ? 21:51:07 10° NNW 21:52:10 12° N 21:53:13 10° NNE visible
24 Jun ? 23:25:47 10° NNW 23:27:22 14° NNE 23:28:58 10° NE visible
25 Jun ? 00:59:29 10° NW 01:00:54 26° NW 01:00:54 26° NW visible
25 Jun ? 22:06:07 10° NNW 22:06:58 11° N 22:07:50 10° NNE visible
25 Jun ? 23:39:56 10° NNW 23:42:05 20° NNE 23:43:24 15° ENE visible
26 Jun ? 01:13:55 10° WNW 01:14:14 12° WNW 01:14:14 12° WNW visible
26 Jun ? 22:20:29 10° NNW 22:21:46 12° N 22:23:03 10° NE visible
26 Jun ? 23:54:07 10° NW 23:56:41 36° NNE 23:56:47 36° NE visible
27 Jun ? 22:34:38 10° NNW 22:36:30 17° NNE 22:38:22 10° ENE visible
28 Jun ? 00:08:26 10° NW 00:10:14 37° NW 00:10:14 37° NW visible
28 Jun ? 22:48:47 10° NW 22:51:09 26° NNE 22:52:54 14° ENE visible
29 Jun ? 00:23:01 10° WNW 00:23:45 16° W 00:23:45 16° W visible
29 Jun ? 23:03:02 10° NW 23:05:42 55° NNE 23:06:27 37° E visible
30 Jun ? 21:43:29 10° NNW 21:45:37 20° NNE 21:47:44 10° ENE visible
30 Jun ? 23:17:27 10° WNW 23:20:03 54° SW 23:20:03 54° SW visible
01 Jul ? 21:57:40 10° NW 22:00:12 36° NNE 22:02:44 10° E visible
01 Jul ? 23:32:17 10° W 23:33:42 18° WSW 23:33:42 18° WSW visible
02 Jul ? 22:11:59 10° NW 22:14:41 88° NNE 22:16:33 18° SE visible
